| time (UTC) | temp F | wind direction | speed knots | gust knots | rain 1hr in | rain 24hr in | rain mn in | humidity % | barometer mb |
| 20260502195003 | 52 | 0 | 0.0 | 0.0 | 0.00 | 0.53 | 0.53 | 97 | 1010.8 |
| 20260502194003 | 52 | 0 | 0.0 | 0.0 | 0.00 | 0.53 | 0.53 | 97 | 1010.8 |
| 20260502193003 | 52 | 0 | 0.0 | 0.0 | 0.00 | 0.53 | 0.53 | 97 | 1010.9 |
| 20260502192218 | 52 | 0 | 0.0 | 0.0 | 0.00 | 0.53 | 0.53 | 96 | 1011.0 |
| 20260502191003 | 52 | 0 | 0.0 | 0.0 | 0.00 | 0.53 | 0.53 | 96 | 1011.1 |
| 20260502190003 | 52 | 0 | 0.0 | 0.0 | 0.00 | 0.53 | 0.53 | 96 | 1011.2 |
| 20260502185003 | 52 | 0 | 0.0 | 0.0 | 0.00 | 0.53 | 0.53 | 97 | 1011.2 |
| 20260502184217 | 52 | 0 | 0.0 | 0.0 | 0.00 | 0.53 | 0.53 | 96 | 1011.2 |
| 20260502183003 | 52 | 0 | 0.0 | 0.0 | 0.01 | 0.53 | 0.53 | 96 | 1011.2 |
| 20260502182003 | 52 | 0 | 0.0 | 0.0 | 0.01 | 0.53 | 0.53 | 96 | 1011.3 |
| 20260502181003 | 52 | 0 | 0.0 | 0.0 | 0.01 | 0.53 | 0.53 | 96 | 1011.4 |
| 20260502180217 | 52 | 0 | 0.0 | 0.9 | 0.02 | 0.53 | 0.53 | 96 | 1011.5 |
| 20260502164003 | 52 | 199 | 1.7 | 6.1 | 0.13 | 0.50 | 0.50 | 95 | 1012.4 |
| 20260502163003 | 52 | 179 | 1.7 | 4.3 | 0.13 | 0.48 | 0.48 | 95 | 1012.4 |
| 20260502162217 | 52 | 184 | 1.7 | 5.2 | 0.12 | 0.46 | 0.46 | 95 | 1012.4 |
| 20260502161218 | 53 | 205 | 1.7 | 6.1 | 0.12 | 0.45 | 0.45 | 95 | 1012.5 |
| 20260502152003 | 54 | 315 | 0.9 | 3.5 | 0.17 | 0.35 | 0.35 | 94 | 1012.7 |
| 20260502151003 | 54 | 316 | 0.9 | 2.6 | 0.19 | 0.32 | 0.32 | 94 | 1012.7 |
| 20260502123003 | 60 | 136 | 6.1 | 11.3 | 0.00 | 0.00 | 0.00 | 74 | 1014.5 |
| 20260502122217 | 60 | 144 | 6.1 | 13.0 | 0.00 | 0.00 | 0.00 | 73 | 1014.7 |
| 20260502121003 | 61 | 149 | 6.1 | 8.7 | 0.00 | 0.00 | 0.00 | 71 | 1014.9 |
| 20260502115217 | 62 | 137 | 6.1 | 12.2 | 0.00 | 0.00 | 0.00 | 70 | 1014.9 |
| 20260502113003 | 64 | 172 | 2.6 | 6.1 | 0.00 | 0.00 | 0.00 | 67 | 1015.1 |
| 20260502112217 | 64 | 176 | 2.6 | 6.1 | 0.00 | 0.00 | 0.00 | 66 | 1015.1 |
| 20260502111003 | 65 | 147 | 1.7 | 5.2 | 0.00 | 0.00 | 0.00 | 65 | 1015.1 |
| 20260502110003 | 65 | 234 | 0.9 | 3.5 | 0.00 | 0.00 | 0.00 | 69 | 1015.2 |
| 20260502105003 | 64 | 170 | 0.9 | 4.3 | 0.00 | 0.00 | 0.00 | 65 | 1015.5 |
| 20260502104003 | 64 | 195 | 2.6 | 7.0 | 0.00 | 0.01 | 0.00 | 67 | 1015.8 |
| 20260502103003 | 64 | 163 | 1.7 | 5.2 | 0.00 | 0.01 | 0.00 | 68 | 1015.8 |
| 20260502102003 | 63 | 180 | 2.6 | 5.2 | 0.00 | 0.01 | 0.00 | 68 | 1016.1 |
| 20260502101003 | 62 | 132 | 1.7 | 4.3 | 0.00 | 0.01 | 0.00 | 73 | 1016.3 |
| 20260502100218 | 61 | 78 | 0.9 | 3.5 | 0.00 | 0.01 | 0.00 | 72 | 1016.4 |
| 20260502091003 | 60 | 203 | 1.7 | 5.2 | 0.00 | 0.01 | 0.00 | 77 | 1016.6 |
| 20260502071003 | 52 | 0 | 0.0 | 0.0 | 0.00 | 0.01 | 0.00 | 89 | 1017.5 |
| 20260502070003 | 52 | 0 | 0.0 | 0.0 | 0.00 | 0.02 | 0.00 | 89 | 1017.5 |
| 20260502065003 | 51 | 0 | 0.0 | 0.0 | 0.00 | 0.09 | 0.00 | 90 | 1017.4 |
| 20260502064004 | 51 | 0 | 0.0 | 0.0 | 0.00 | 0.10 | 0.00 | 90 | 1017.4 |
| 20260502063003 | 50 | 0 | 0.0 | 1.7 | 0.00 | 0.10 | 0.00 | 91 | 1017.4 |
| 20260502062003 | 50 | 0 | 0.0 | 1.7 | 0.00 | 0.10 | 0.00 | 92 | 1017.6 |
| 20260502061003 | 49 | 0 | 0.0 | 1.7 | 0.00 | 0.10 | 0.00 | 93 | 1017.6 |
| 20260502060003 | 48 | 0 | 0.0 | 0.0 | 0.00 | 0.10 | 0.00 | 95 | 1017.7 |
| 20260502055003 | 48 | 0 | 0.0 | 0.0 | 0.00 | 0.12 | 0.00 | 95 | 1017.6 |
| 20260502054003 | 47 | 0 | 0.0 | 0.0 | 0.00 | 0.12 | 0.00 | 95 | 1017.8 |
| 20260502053003 | 46 | 0 | 0.0 | 0.0 | 0.00 | 0.12 | 0.00 | 95 | 1017.9 |
| 20260502052004 | 46 | 0 | 0.0 | 0.0 | 0.00 | 0.12 | 0.00 | 95 | 1017.8 |
| 20260502051003 | 46 | 0 | 0.0 | 0.0 | 0.00 | 0.12 | 0.00 | 95 | 1017.9 |
| 20260502050216 | 46 | 0 | 0.0 | 0.0 | 0.00 | 0.12 | 0.00 | 95 | 1017.9 |
| 20260502045003 | 46 | 0 | 0.0 | 0.0 | 0.00 | 0.12 | 0.00 | 94 | 1018.0 |
| 20260502044003 | 46 | 0 | 0.0 | 0.0 | 0.00 | 0.12 | 0.00 | 94 | 1018.0 |
| 20260502043003 | 46 | 0 | 0.0 | 0.0 | 0.00 | 0.12 | 0.00 | 94 | 1017.9 |
| 20260502042003 | 47 | 0 | 0.0 | 0.0 | 0.00 | 0.12 | 0.00 | 94 | 1017.9 |
| 20260502041003 | 47 | 0 | 0.0 | 0.0 | 0.00 | 0.12 | 0.00 | 94 | 1017.9 |
| 20260502040003 | 47 | 0 | 0.0 | 0.0 | 0.00 | 0.12 | 0.00 | 94 | 1017.8 |
| 20260502035218 | 47 | 0 | 0.0 | 0.0 | 0.00 | 0.12 | 0.00 | 94 | 1017.8 |
| 20260502034003 | 47 | 0 | 0.0 | 0.0 | 0.00 | 0.12 | 0.00 | 95 | 1018.0 |
| 20260502033218 | 46 | 0 | 0.0 | 0.0 | 0.00 | 0.12 | 0.00 | 95 | 1018.0 |
| 20260502032218 | 46 | 0 | 0.0 | 0.0 | 0.00 | 0.12 | 0.00 | 94 | 1018.1 |
| 20260502031218 | 46 | 0 | 0.0 | 0.0 | 0.00 | 0.12 | 0.00 | 94 | 1018.2 |
| 20260502030003 | 46 | 0 | 0.0 | 0.0 | 0.00 | 0.12 | 0.00 | 94 | 1018.3 |
| 20260502025003 | 46 | 0 | 0.0 | 0.0 | 0.00 | 0.12 | 0.00 | 93 | 1018.5 |
| 20260502024003 | 46 | 0 | 0.0 | 0.0 | 0.00 | 0.12 | 0.00 | 93 | 1018.6 |
| 20260502023004 | 47 | 0 | 0.0 | 0.0 | 0.00 | 0.12 | 0.00 | 93 | 1018.7 |
| 20260502022003 | 47 | 0 | 0.0 | 0.0 | 0.00 | 0.12 | 0.00 | 93 | 1018.7 |
| 20260502021003 | 47 | 0 | 0.0 | 0.0 | 0.00 | 0.12 | 0.00 | 92 | 1018.7 |
| 20260502020217 | 48 | 0 | 0.0 | 0.0 | 0.00 | 0.12 | 0.00 | 92 | 1018.7 |
| 20260502015003 | 48 | 0 | 0.0 | 0.0 | 0.00 | 0.12 | 0.00 | 91 | 1019.0 |
| 20260502014003 | 48 | 0 | 0.0 | 0.0 | 0.00 | 0.12 | 0.00 | 91 | 1019.1 |
| 20260502013003 | 49 | 0 | 0.0 | 0.0 | 0.00 | 0.12 | 0.00 | 91 | 1019.2 |
| 20260502012003 | 49 | 0 | 0.0 | 0.0 | 0.00 | 0.12 | 0.00 | 91 | 1019.4 |
| 20260502011003 | 49 | 0 | 0.0 | 0.0 | 0.00 | 0.12 | 0.00 | 91 | 1019.5 |
| 20260502010003 | 49 | 0 | 0.0 | 0.0 | 0.00 | 0.12 | 0.00 | 91 | 1019.5 |
| 20260502005003 | 49 | 0 | 0.0 | 0.0 | 0.00 | 0.12 | 0.00 | 91 | 1019.5 |
| 20260502004003 | 50 | 0 | 0.0 | 0.0 | 0.00 | 0.12 | 0.00 | 91 | 1019.6 |
| 20260502003003 | 50 | 0 | 0.0 | 0.0 | 0.00 | 0.12 | 0.00 | 91 | 1019.6 |
| 20260502002003 | 49 | 0 | 0.0 | 0.0 | 0.00 | 0.12 | 0.00 | 91 | 1019.6 |
| 20260502001003 | 49 | 0 | 0.0 | 0.0 | 0.00 | 0.12 | 0.00 | 90 | 1019.8 |
| 20260502000003 | 49 | 0 | 0.0 | 0.0 | 0.00 | 0.12 | 0.00 | 89 | 1019.7 |
| 20260501235004 | 49 | 0 | 0.0 | 0.0 | 0.00 | 0.12 | 0.00 | 88 | 1019.7 |
| 20260501234004 | 49 | 0 | 0.0 | 0.0 | 0.00 | 0.12 | 0.00 | 87 | 1019.8 |
| 20260501233004 | 50 | 0 | 0.0 | 0.0 | 0.00 | 0.12 | 0.00 | 87 | 1019.8 |
| 20260501232003 | 51 | 0 | 0.0 | 0.0 | 0.00 | 0.12 | 0.00 | 86 | 1019.8 |
| 20260501231003 | 51 | 0 | 0.0 | 0.0 | 0.00 | 0.12 | 0.00 | 84 | 1019.8 |
| 20260501230218 | 52 | 0 | 0.0 | 0.0 | 0.00 | 0.12 | 0.00 | 83 | 1019.8 |
| 20260501225003 | 53 | 0 | 0.0 | 0.0 | 0.00 | 0.12 | 0.12 | 82 | 1020.0 |
| 20260501224003 | 54 | 0 | 0.0 | 0.0 | 0.00 | 0.12 | 0.12 | 82 | 1020.1 |
| 20260501223004 | 54 | 0 | 0.0 | 0.0 | 0.00 | 0.12 | 0.12 | 81 | 1020.2 |
| 20260501222004 | 54 | 0 | 0.0 | 0.0 | 0.00 | 0.12 | 0.12 | 80 | 1020.2 |
| 20260501221003 | 55 | 0 | 0.0 | 0.0 | 0.00 | 0.12 | 0.12 | 80 | 1020.2 |
| 20260501220003 | 55 | 0 | 0.0 | 0.0 | 0.00 | 0.12 | 0.12 | 81 | 1020.2 |
| 20260501215218 | 55 | 0 | 0.0 | 0.0 | 0.00 | 0.12 | 0.12 | 83 | 1020.3 |
| 20260501214003 | 55 | 0 | 0.0 | 0.0 | 0.00 | 0.12 | 0.12 | 84 | 1020.2 |
| 20260501213003 | 55 | 0 | 0.0 | 1.7 | 0.00 | 0.12 | 0.12 | 83 | 1020.2 |
| 20260501212003 | 55 | 8 | 0.9 | 3.5 | 0.00 | 0.12 | 0.12 | 83 | 1020.2 |
| 20260501211003 | 56 | 6 | 0.9 | 2.6 | 0.00 | 0.12 | 0.12 | 83 | 1020.1 |
| 20260501210219 | 56 | 357 | 0.9 | 3.5 | 0.00 | 0.12 | 0.12 | 83 | 1020.0 |
| 20260501205004 | 56 | 357 | 1.7 | 4.3 | 0.00 | 0.12 | 0.12 | 84 | 1020.0 |
| 20260501204003 | 56 | 360 | 0.9 | 4.3 | 0.00 | 0.12 | 0.12 | 84 | 1019.8 |
| 20260501203003 | 56 | 5 | 1.7 | 4.3 | 0.00 | 0.12 | 0.12 | 83 | 1019.8 |
| 20260501202217 | 56 | 17 | 1.7 | 4.3 | 0.00 | 0.12 | 0.12 | 83 | 1019.8 |
| 20260501201003 | 56 | 328 | 0.9 | 3.5 | 0.00 | 0.12 | 0.12 | 78 | 1019.8 |
| 20260501200003 | 56 | 329 | 2.6 | 5.2 | 0.00 | 0.12 | 0.12 | 76 | 1019.6 |